Regional Weather Roundup
Issued by NWS New Orleans/Baton Rouge, LA

Home | Current Version | Previous Version | Graphics & Text | Print | Product List | Glossary On
Versions: 1 2 3 4 5 6 7 8 9 10 11 12 13 14 15 16 17 18 19 20 21 22 23 24 25 26 27 28 29 30 31 32 33 34 35 36 37 38 39 40 41 42 43 44 45 46 47 48 49 50
436
ASUS44 KLIX 260001
RWRLIX
NEW ORLEANS REGIONAL WEATHER ROUNDUP
NATIONAL WEATHER SERVICE NEW ORLEANS LA
700 PM CDT SAT OCT 25 2014

NOTE: "FAIR" INDICATES FEW OR NO CLOUDS BELOW 12,000 FEET WITH NO
      SIGNIFICANT WEATHER AND/OR OBSTRUCTIONS TO VISIBILITY.
      SKY/WX - SKY CONDITION AND SIGNIFICANT WEATHER.
      TMP - AIR TEMPERATURE.     DP    - DEWPOINT TEMPERATURE.
      RH  - RELATIVE HUMIDITY.   PRES  - PRESSURE.
      HI  - HEAT INDEX.          WCI   - WIND CHILL INDEX.

*  THESE STATIONS ARE NOT NWS OR FAA STATIONS AND ARE NOT UNDER
   NWS QUALITY CONTROL.

LAZ038-040-048-061>063-065>067-069-260100-
SOUTHEAST LOUISIANA

CITY           SKY/WX    TMP DP  RH WIND       PRES   REMARKS
N.O. AUDUBON     N/A     73  58  60 MISG        N/A
6HR MIN TEMP:  73; 6HR MAX TEMP:  82;

N.O. INTL ARPT PTCLDY    73  56  54 W3        30.07R
6HR MIN TEMP:  72; 6HR MAX TEMP:  79;

N.O. LAKEFRONT CLEAR     74  63  68 W8        30.06F
6HR MIN TEMP:  72; 6HR MAX TEMP:  75;

N.O. DOWNTOWN*   N/A     77  52  41 W3        30.07S
6HR MIN TEMP:  75; 6HR MAX TEMP:  79;

SLIDELL        CLEAR     66  59  78 CALM      30.06S
6HR MIN TEMP:  66; 6HR MAX TEMP:  82;

BATON ROUGE    CLEAR     71  52  50 NW5       30.08R
6HR MIN TEMP:  71; 6HR MAX TEMP:  83;

BOOTHVILLE     CLEAR     68  57  68 CALM      30.08R
6HR MIN TEMP:  68; 6HR MAX TEMP:  74;

BELLE CHASSE   CLEAR     64  58  80 SW5       30.06S
6HR MIN TEMP:  64; 6HR MAX TEMP:  80;

BOGALUSA*        N/A     69  60  72 CALM      30.08R
6HR MIN TEMP:  68; 6HR MAX TEMP:  83;

NEW ROADS*       N/A     68  58  69 CALM      30.08S
6HR MIN TEMP:  68; 6HR MAX TEMP:  80;

GONZALES*        N/A     64  61  88 CALM      30.07S
6HR MIN TEMP:  64; 6HR MAX TEMP:  81;

HAMMOND*       NOT AVBL
HOUMA*         CLEAR     70  55  60 NW3       30.07S
PORT FOURCHON* CLEAR     72  59  64 CALM      30.11R

$$

MSZ070-080>082-260100-
SOUTHERN MISSISSIPPI

CITY           SKY/WX    TMP DP  RH WIND       PRES   REMARKS
MCCOMB         CLEAR     71  57  61 NW3       30.08R
6HR MIN TEMP:  71; 6HR MAX TEMP:  82;

GULFPORT       CLEAR     67  60  78 CALM      30.05R
6HR MIN TEMP:  67; 6HR MAX TEMP:  81;

BILOXI         CLEAR     67  60  79 W3        30.05S
6HR MIN TEMP:  67; 6HR MAX TEMP:  80;

PASCAGOULA     CLEAR     62  58  86 CALM      30.05S
6HR MIN TEMP:  60; 6HR MAX TEMP:  80;

STENNIS ARPT*  CLEAR     68  57  68 VRB5      30.06R

$$

COASTAL OBSERVATIONS
LAKE AND NEARSHORE STATIONS

STATION/POSITION TIME  TEMP    WIND        PRES    WAVE
                       AIR SEA DIR/SP/G            HT/PER
                 (UTC) (F)     (DEG/KT/KT) (MB)    (FT/S)
PASCAGOULA       2300   75     320/  3/  3 1017.0
WAVELAND YACHT   2300   71     240/  5/  7 1016.9
GRAND ISLE       2300   72 72  170/  1/  1 1018.8
SOUTHWEST PASS   2300   75 80              1018.5
NEW CANAL        2300   76 71  270/  3/  5 1018.3
SHELL BEACH      2300   74 69  280/  6/  6 1017.8

OFFSHORE STATIONS

STATION/POSITION TIME  TEMP    WIND        PRES    WAVE
                       AIR SEA DIR/SP/G            HT/PER
                 (UTC) (F)     (DEG/KT/KT) (MB)    (FT/S)

$$




USA.gov is the U.S. government's official web portal to all federal, state and local government web resources and services.